Погода в Шалакуше

Россия / Архангельская область     62°13′31″N   40°15′13″E
темп.,
°C
ветер,
м/с
пор.,
м/с
влажн.,
%
обл.,
%
осадки,
мм/ч
давл.,
гПа
погр.,
м
24 октября, вс
вс2400:00−2ссв2696100 0.0 1007248
03:00−2с2694100 0.0 1008251
06:00−2ссз2788100 0.0 1009293
09:00−1ссз3887100 0.0 1011390
12:00+1ссз3777100 0.0 1013645
15:00+1ссз377970 0.0 1014756
18:00−2сз28885 0.0 1017280
21:00−3зсз27966 0.0 1018266
25 октября, пн
пн2500:00−3з38915 0.0 1019284
03:00−3з398748 0.0 1019362
06:00−4зюз28865 0.0 1020279
09:00−3зюз2685100 0.0 1020239
12:000юз2472100 0.0 1019490
15:000ю2675100 0.0 1017609
18:00−1юв3897100 0.6 1015433
21:00−1юв4996100 1.9 1012497
26 октября, вт
вт2600:00−1юв3797100 1.0 1011377
03:00−1вюв2698100 2.1 1010245
06:00−1вюв2498100 1.1 1009177
09:000вюв1298100 1.5 1010119
12:00+1ююв1197100 0.3 101076
15:00+1юв13100100 0.6 100898
18:00+3юз3998100 1.3 1008408
21:00+3юз31198100 2.3 1007482
27 октября, ср
ср2700:00+3юз31098100 0.3 1007498
03:00+3юз31097100 0.8 1006470
06:00+3юз31097100 0.3 1004454
09:00+3юз31197100 1.9 1003493
12:00+4юз41197100 1.5 1003585
15:00+5юз3109699 1.6 1002708
18:00+5з41094100 0.2 10021007
21:00+4з4996100 0.5 1002833
28 октября, чт
чт2800:00+2сз51097100 0.4 1004882
03:00−1ссз598695 0.5 1008927
06:00−3ссз4980100 0.1 1012906
09:00−3с487392 0.1 1016945
12:00−2с37665 0.0 1019850
15:00−2ссв24715 0.0 1022489
18:00−5св11935 0.0 102437
21:00−6в11955 0.0 102616